SCP
0 0 0 0 0 0 0 0 0 0 0 0 0 0 0 0 0 0 0 0 0 0 0 0 0 0 0 0 0 0 0 0 0 0 0 0 0 0 0 0 0 0 0
0 0 0 0 0 0 0 0 0 0 0 0 0 0 0 0 0 0 0 0 0 0 0 0 0 0 0 0 0 0 0 0 0 0 0 0 0 0 0 0 0 0 0
0 0 0 0 0 0 0 0 0 0 0 0 0 0 0 0 0 0 0 0 0 0 0 0 0 0 0 0 0 0 0 0 0 0 0 0 0 0 0 0 0 0 0
0 0 0 0 0 0 0 0 0 0 0 0 0 0 0 0 0 0 0 0 0 0 0 0 0 0 0 0 0 0 0 0 0 0 0 0 0 0 0 0 0 0 0
0 0 0 0 0 0 0 0 0 0 0 0 0 0 0 0 0 0 0 0 0 0 0 0 0 0 0 0 0 0 0 0 0 0 0 0 0 0 0 0 0 0 0
0 0 0 0 0 0 0 0 0 0 0 0 0 0 0 0 0 0 0 0 0 0 0 0 0 0 0 0 0 0 0 0 0 0 0 0 0 0 0 0 0 0 0
0 0 0 0 0 0 0 0 0 0 0 0 0 0 0 0 0 0 0 0 0 0 0 0 0 0 0 0 0 0 0 0 0 0 0 0 0 0 0 0 0 0 0
0 0 0 0 0 0 0 0 0 0 0 0 0 0 0 0 0 0 0 0 0 0 0 0 0 0 0 0 0 0 0 0 0 0 0 0 0 0 0 0 0 0 0
0 0 0 0 0 0 0 0 0 0 0 0 0 0 0 0 0 0 0 0 0 0 0 0 0 0 0 0 0 0 0 0 0 0 0 0 0 0 0 0 0 0 0
0 0 0 0 0 0 0 0 0 0 0 0 0 0 0 0 0 0 0 0 0 0 0 0 0 0 0 0 0 0 0 0 0 0 0 0 0 0 0 0 0 0 0
0 0 0 0 0 0 0 0 0 0 0 0 0 0 0 0 0 0 0 0 0 0 0 0 0 0 0 0 0 0 0 0 0 0 0 0 0 0 0 0 0 0 0
0 0 0 0 0 0 0 0 0 0 0 0 0 0 0 0 0 0 0 0 0 0 0 0 0 0 0 0 0 0 0 0 0 0 0 0 0 0 0 0 0 0 0
0 0 0 0 0 0 0 0 0 0 0 0 0 0 0 0 0 0 0 0 0 0 0 0 0 0 0 0 0 0 0 0 0 0 0 0 0 0 0 0 0 0 0
0 0 0 0 0 0 0 0 0 0 0 0 0 0 0 0 0 0 0 0 0 0 0 0 0 0 0 0 0 0 0 0 0 0 0 0 0 0 0 0 0 0 0
0 0 -0 -0 -0 0 0 0 0 0 0 0 0 0 0 0 0 0 0 0 0 0 0 0 0 0 0 0 0 0 0 0 0 0 0 0 0 0 0 0 0 0 0
0 0 0 0 0 0 0 0 0 0 0 0 0 0 0 0 0 0 0 0 0 0 0 0 0 0 0 0 0 0 0 0 0 0 0 0 0 0 0 0 0 0 0
0 0 0 0 0 0 0 0 0 0 0 0 0 0 0 0 0 0 0 0 0 0 0 0 0 0 0 0 0 0 0 0 0 0 0 0 0 0 0 0 0 0 0
0 0 0 0 0 0 0 0 0 0 0 0 0 0 0 0 0 0 0 0 0 0 0 0 0 0 0 0 0 0 0 0 0 0 0 0 0 0 0 0 0 0 0
0 0 0 0 0 0 0 0 0 0 0 0 0 0 0 0 0 0 0 0 0 0 0 0 0 0 0 0 0 0 0 0 0 0 0 0 0 0 0 0 0 0 0
0 0 0 0 0 0 0 0 0 0 0 0 0 0 0 0 0 0 0 0 0 0 0 0 0 0 0 0 0 0 0 0 0 0 0 0 0 0 0 0 0 0 0
0 0 0 0 0 0 0 0 0 0 0 0 0 0 0 0 0 0 0 0 0 0 0 0 0 0 0 0 0 0 0 0 0 0 0 0 0 0 0 0 0 0 0
0 0 0 0 0 0 0 0 0 0 0 0 0 0 0 0 0 0 0 0 0 0 0 0 0 0 0 0 0 0 0 0 0 0 0 0 0 0 0 0 0 0 0
0 0 0 0 0 0 0 0 0 0 0 0 0 0 0 0 0 0 0 0 0 0 0 0 0 0 0 0 0 0 0 0 0 0 0 0 0 0 0 0 0 0 0
0 0 0 0 0 0 0 0 0 0 0 0 0 0 0 0 0 0 0 0 0 0 0 0 0 0 0 0 0 0 0 0 0 0 0 0 0 0 0 0 0 0 0
0 0 0 0 0 0 0 0 0 0 0 0 0 0 0 0 0 0 0 0 0 0 0 0 0 0 0 0 0 0 0 0 0 0 0 0 0 0 0 0 0 0 0
0 0 0 0 0 0 0 0 0 0 0 0 0 0 0 0 0 0 0 0 0 0 0 0 0 0 0 0 0 0 0 0 0 0 0 0 0 0 0 0 0 0 0
Wind_Speed_500mb
42 50 61 66 67 64 60 60 58 54 55 54 53 52 51 47 44 40 31 35 30 26 25 19 20 20 19 22 22 22 23 25 28 34 20 21 14 15 9 9 11 11 29
44 55 63 66 70 69 67 65 64 60 59 57 55 54 51 51 46 40 38 40 37 35 34 28 25 26 27 28 28 28 26 27 30 28 26 4 5 8 15 5 16 20 27
53 54 64 67 68 74 75 73 71 67 64 61 58 57 57 56 51 47 44 46 37 38 36 36 35 34 33 35 36 31 29 30 32 31 14 7 6 10 8 3 14 28 30
59 55 65 70 73 76 74 77 75 74 72 68 70 67 66 63 53 47 46 41 40 42 40 41 38 39 42 40 39 34 31 32 31 29 27 21 19 6 2 9 14 25 25
63 67 70 72 69 67 72 76 78 79 79 77 76 73 72 67 58 55 49 48 45 47 38 45 45 45 45 45 39 33 37 33 32 32 28 22 18 16 14 11 15 19 21
74 67 68 69 72 70 70 72 75 81 80 82 81 80 76 73 68 67 62 55 52 49 42 44 47 52 49 45 40 39 37 34 33 34 29 22 17 15 13 12 14 11 12
76 75 71 71 71 75 77 78 77 81 82 84 83 82 80 77 75 71 67 66 62 58 51 45 44 50 48 45 43 40 35 34 35 32 25 20 17 13 12 11 12 9 7
60 72 68 68 76 81 78 80 81 83 84 84 84 85 82 82 78 73 70 70 69 59 56 45 38 41 47 45 43 38 38 35 32 28 23 18 15 14 14 14 14 14 8
46 47 52 66 71 77 83 80 81 83 86 84 88 89 88 85 81 76 73 72 72 68 59 48 44 43 44 45 44 43 42 35 32 28 23 18 17 16 13 12 13 15 8
41 43 45 49 55 63 70 74 76 78 80 81 83 81 80 79 78 76 77 74 72 71 67 59 50 47 48 49 47 46 40 36 32 27 22 19 19 16 12 11 11 13 16
34 39 40 42 47 54 58 60 76 83 84 83 79 76 74 72 73 74 74 72 68 74 75 66 56 51 50 52 49 46 42 37 32 27 23 21 18 15 12 9 12 16 18
28 31 33 37 46 49 52 58 68 80 79 77 75 73 73 75 76 78 77 72 69 78 76 72 58 49 51 49 50 47 42 38 33 28 25 22 17 14 9 9 12 17 22
17 15 17 24 31 39 45 47 56 65 67 69 70 72 72 73 77 77 77 71 70 80 78 73 58 53 53 53 53 49 44 39 34 29 26 22 19 14 10 9 13 18 24
22 19 19 18 19 24 31 38 46 53 59 62 65 67 68 69 72 72 71 67 72 79 83 70 53 56 55 58 56 51 45 40 34 32 29 25 20 14 10 11 13 19 24
48 35 32 28 24 25 30 38 45 50 54 56 58 58 57 59 62 62 63 65 75 74 84 66 57 61 63 62 56 51 46 41 37 34 31 26 21 14 11 14 16 19 23
40 37 36 36 37 36 36 36 43 47 49 52 51 50 50 49 52 54 60 67 72 81 72 67 58 68 65 60 56 50 46 43 39 35 33 28 22 16 15 18 20 21 23
53 48 39 37 36 34 36 39 40 44 48 47 48 48 48 50 52 54 59 70 75 77 78 63 67 68 66 61 56 51 48 43 39 37 34 29 23 17 21 21 21 23 26
50 42 37 34 29 29 30 34 43 47 48 47 49 51 53 53 55 59 64 76 81 75 73 73 74 71 67 63 58 54 49 46 42 40 35 30 20 28 26 24 22 24 25
51 54 54 48 40 34 33 35 37 45 51 54 56 56 56 57 61 66 69 72 78 79 79 77 78 75 69 64 60 56 53 47 44 40 32 24 23 38 34 28 26 27 26
34 36 32 28 30 33 38 39 41 44 50 56 56 56 59 60 65 69 72 76 79 81 80 79 76 70 66 63 59 57 53 48 44 36 28 29 37 44 38 31 29 30 28
15 27 30 32 31 31 31 33 36 40 38 47 56 61 63 65 63 71 75 79 82 82 80 78 75 72 68 65 63 57 50 43 42 33 32 34 45 48 40 35 34 32 31
4 16 22 25 26 25 26 28 32 27 30 38 49 59 64 67 70 75 77 81 82 81 82 82 80 78 73 67 60 54 48 44 35 32 34 41 53 47 42 38 36 36 36
4 9 15 19 21 21 19 19 19 25 29 32 38 47 57 67 70 75 80 83 85 88 89 88 86 81 75 68 62 54 51 41 36 38 38 51 51 46 44 42 40 40 37
5 6 9 13 17 18 19 17 16 19 23 26 30 35 46 58 66 72 77 83 90 94 93 91 87 82 77 72 65 57 48 43 40 36 47 54 51 50 47 45 44 42 41
9 11 13 15 17 18 17 16 17 18 20 23 26 30 36 45 59 71 79 86 89 92 94 92 89 84 78 70 61 53 42 40 36 42 57 58 55 52 52 49 46 45 43
13 14 16 17 18 20 21 21 20 18 18 21 24 28 34 39 50 63 76 84 90 90 90 88 81 76 70 64 56 46 40 42 57 60 64 60 57 56 54 51 48 46 44
Wind_Direction_500mb
216 214 214 213 214 215 216 217 218 218 220 221 222 225 227 228 232 234 235 239 243 251 253 256 247 232 245 263 270 277 284 288 297 303 313 307 293 298 330 21 25 28 352
219 216 213 215 219 219 218 219 221 221 224 226 228 231 236 236 240 239 242 243 243 247 245 248 251 251 257 263 272 273 279 286 295 299 311 267 285 192 320 8 4 348 346
221 219 217 217 220 223 222 222 223 225 226 228 231 231 233 235 234 235 233 241 241 242 243 245 247 253 253 260 264 272 275 283 283 283 280 276 231 293 215 280 350 350 352
230 224 222 221 222 223 226 228 227 228 230 229 232 234 235 236 236 241 246 246 235 250 242 250 246 251 253 256 260 262 272 273 270 268 274 265 266 252 233 300 333 345 345
233 230 229 227 228 228 229 230 230 230 231 232 233 235 238 239 243 241 240 240 244 246 254 249 248 248 256 259 255 265 274 262 261 263 269 263 252 249 249 274 308 347 344
239 235 234 232 231 231 232 233 233 233 232 233 234 233 237 240 241 244 241 236 239 246 246 253 249 248 254 256 260 270 263 255 253 258 262 244 239 237 247 265 299 331 336
235 239 238 234 231 231 233 234 233 234 233 234 234 236 237 240 244 246 241 238 239 237 245 249 250 254 255 253 259 260 247 245 249 249 237 235 242 265 284 296 309 328 340
239 240 241 241 238 236 235 236 236 236 234 235 236 238 239 241 243 244 242 238 242 241 243 240 243 253 253 253 258 243 237 245 235 230 231 240 260 282 297 313 332 340 340
245 245 244 244 245 244 242 240 240 238 236 236 237 240 241 241 244 243 241 239 238 239 235 238 242 248 247 251 247 240 243 228 221 223 228 244 263 276 288 312 336 352 347
258 258 250 251 251 251 250 247 245 241 237 234 235 238 240 241 242 241 241 240 238 235 232 236 236 241 245 242 240 236 222 219 219 222 232 248 264 272 288 314 329 352 346
264 259 252 248 249 250 247 246 240 235 232 232 234 235 237 239 241 242 243 243 239 233 228 231 228 232 239 238 232 218 216 217 219 227 237 247 254 264 279 309 325 344 345
294 282 268 253 247 243 242 245 240 233 229 231 233 235 236 239 241 242 242 237 233 231 234 222 221 234 231 229 218 216 216 217 221 229 238 243 242 246 264 294 323 334 339
342 325 288 271 260 253 245 234 230 228 229 232 235 237 239 241 244 244 242 237 226 227 228 216 219 237 228 216 212 214 215 218 223 231 235 234 230 232 249 289 316 330 333
315 328 330 313 283 261 251 239 233 232 233 236 240 244 247 248 246 242 237 228 225 220 220 211 225 233 220 213 212 213 215 219 224 229 227 222 219 221 250 284 312 323 330
288 286 296 294 275 260 245 237 233 236 240 243 246 247 245 242 237 232 231 220 217 223 212 216 231 221 212 212 212 213 217 221 224 225 221 216 214 225 254 285 302 317 323
287 287 282 276 266 264 253 247 244 243 245 248 248 247 245 241 231 230 220 221 212 227 208 217 227 213 210 211 212 215 220 222 222 220 216 212 216 228 256 275 298 308 315
288 284 281 276 280 280 273 261 255 252 250 248 245 243 240 233 224 221 216 223 214 218 212 225 218 212 211 213 213 215 219 221 222 217 214 212 219 241 262 271 287 301 310
282 289 288 286 279 279 271 266 254 249 249 249 248 242 236 229 221 224 222 221 212 212 220 220 211 212 212 212 214 216 218 219 217 216 216 219 231 263 259 265 278 289 298
277 283 283 280 274 272 274 271 263 252 247 246 245 242 238 230 221 221 221 218 218 220 218 215 212 212 212 212 214 216 218 218 216 214 218 233 252 259 260 264 271 280 290
275 280 286 286 279 272 266 262 260 258 252 250 249 246 242 236 226 224 223 221 221 222 218 213 213 215 215 216 217 217 217 217 214 211 226 243 252 259 261 265 268 275 282
282 290 293 294 286 277 274 272 267 267 266 255 250 245 242 239 233 228 227 225 222 219 214 213 215 215 216 217 216 217 219 216 208 226 240 247 254 259 262 265 270 275 278
249 291 301 302 297 286 274 271 271 274 263 258 255 249 244 240 235 230 230 228 224 218 216 216 216 216 216 216 215 214 216 207 222 233 245 253 255 258 262 266 271 274 275
28 346 324 315 311 306 293 280 267 257 259 258 257 252 246 243 239 234 230 225 221 219 218 218 217 217 217 215 214 213 204 217 227 239 251 253 256 259 261 262 264 267 273
39 34 0 338 334 331 325 309 279 260 259 262 262 258 249 244 241 237 234 230 226 223 222 222 221 221 219 217 212 204 212 222 240 256 254 252 254 256 257 257 259 263 266
34 27 13 7 357 345 334 321 304 289 276 267 265 261 256 250 245 241 238 234 233 234 233 230 229 226 223 222 214 213 230 246 261 260 248 247 248 249 250 252 254 260 265
41 27 18 10 358 347 338 330 321 306 293 284 274 266 260 254 249 243 240 237 236 236 237 237 238 234 230 220 211 225 248 269 271 241 245 246 247 248 250 252 255 258 262
Wind_Speed_850mb
42 50 61 66 67 64 60 60 58 54 55 54 53 52 51 47 44 40 31 35 30 26 25 19 20 20 19 22 22 22 23 25 28 34 20 21 14 15 9 9 11 11 29
44 55 63 66 70 69 67 65 64 60 59 57 55 54 51 51 46 40 38 40 37 35 34 28 25 26 27 28 28 28 26 27 30 28 26 4 5 8 15 5 16 20 27
53 54 64 67 68 74 75 73 71 67 64 61 58 57 57 56 51 47 44 46 37 38 36 36 35 34 33 35 36 31 29 30 32 31 14 7 6 10 8 3 14 28 30
59 55 65 70 73 76 74 77 75 74 72 68 70 67 66 63 53 47 46 41 40 42 40 41 38 39 42 40 39 34 31 32 31 29 27 21 19 6 2 9 14 25 25
63 67 70 72 69 67 72 76 78 79 79 77 76 73 72 67 58 55 49 48 45 47 38 45 45 45 45 45 39 33 37 33 32 32 28 22 18 16 14 11 15 19 21
74 67 68 69 72 70 70 72 75 81 80 82 81 80 76 73 68 67 62 55 52 49 42 44 47 52 49 45 40 39 37 34 33 34 29 22 17 15 13 12 14 11 12
76 75 71 71 71 75 77 78 77 81 82 84 83 82 80 77 75 71 67 66 62 58 51 45 44 50 48 45 43 40 35 34 35 32 25 20 17 13 12 11 12 9 7
60 72 68 68 76 81 78 80 81 83 84 84 84 85 82 82 78 73 70 70 69 59 56 45 38 41 47 45 43 38 38 35 32 28 23 18 15 14 14 14 14 14 8
46 47 52 66 71 77 83 80 81 83 86 84 88 89 88 85 81 76 73 72 72 68 59 48 44 43 44 45 44 43 42 35 32 28 23 18 17 16 13 12 13 15 8
41 43 45 49 55 63 70 74 76 78 80 81 83 81 80 79 78 76 77 74 72 71 67 59 50 47 48 49 47 46 40 36 32 27 22 19 19 16 12 11 11 13 16
34 39 40 42 47 54 58 60 76 83 84 83 79 76 74 72 73 74 74 72 68 74 75 66 56 51 50 52 49 46 42 37 32 27 23 21 18 15 12 9 12 16 18
28 31 33 37 46 49 52 58 68 80 79 77 75 73 73 75 76 78 77 72 69 78 76 72 58 49 51 49 50 47 42 38 33 28 25 22 17 14 9 9 12 17 22
17 15 17 24 31 39 45 47 56 65 67 69 70 72 72 73 77 77 77 71 70 80 78 73 58 53 53 53 53 49 44 39 34 29 26 22 19 14 10 9 13 18 24
22 19 19 18 19 24 31 38 46 53 59 62 65 67 68 69 72 72 71 67 72 79 83 70 53 56 55 58 56 51 45 40 34 32 29 25 20 14 10 11 13 19 24
48 35 32 28 24 25 30 38 45 50 54 56 58 58 57 59 62 62 63 65 75 74 84 66 57 61 63 62 56 51 46 41 37 34 31 26 21 14 11 14 16 19 23
40 37 36 36 37 36 36 36 43 47 49 52 51 50 50 49 52 54 60 67 72 81 72 67 58 68 65 60 56 50 46 43 39 35 33 28 22 16 15 18 20 21 23
53 48 39 37 36 34 36 39 40 44 48 47 48 48 48 50 52 54 59 70 75 77 78 63 67 68 66 61 56 51 48 43 39 37 34 29 23 17 21 21 21 23 26
50 42 37 34 29 29 30 34 43 47 48 47 49 51 53 53 55 59 64 76 81 75 73 73 74 71 67 63 58 54 49 46 42 40 35 30 20 28 26 24 22 24 25
51 54 54 48 40 34 33 35 37 45 51 54 56 56 56 57 61 66 69 72 78 79 79 77 78 75 69 64 60 56 53 47 44 40 32 24 23 38 34 28 26 27 26
34 36 32 28 30 33 38 39 41 44 50 56 56 56 59 60 65 69 72 76 79 81 80 79 76 70 66 63 59 57 53 48 44 36 28 29 37 44 38 31 29 30 28
15 27 30 32 31 31 31 33 36 40 38 47 56 61 63 65 63 71 75 79 82 82 80 78 75 72 68 65 63 57 50 43 42 33 32 34 45 48 40 35 34 32 31
4 16 22 25 26 25 26 28 32 27 30 38 49 59 64 67 70 75 77 81 82 81 82 82 80 78 73 67 60 54 48 44 35 32 34 41 53 47 42 38 36 36 36
4 9 15 19 21 21 19 19 19 25 29 32 38 47 57 67 70 75 80 83 85 88 89 88 86 81 75 68 62 54 51 41 36 38 38 51 51 46 44 42 40 40 37
5 6 9 13 17 18 19 17 16 19 23 26 30 35 46 58 66 72 77 83 90 94 93 91 87 82 77 72 65 57 48 43 40 36 47 54 51 50 47 45 44 42 41
9 11 13 15 17 18 17 16 17 18 20 23 26 30 36 45 59 71 79 86 89 92 94 92 89 84 78 70 61 53 42 40 36 42 57 58 55 52 52 49 46 45 43
13 14 16 17 18 20 21 21 20 18 18 21 24 28 34 39 50 63 76 84 90 90 90 88 81 76 70 64 56 46 40 42 57 60 64 60 57 56 54 51 48 46 44
Wind_Direction_850mb
216 214 214 213 214 215 216 217 218 218 220 221 222 225 227 228 232 234 235 239 243 251 253 256 247 232 245 263 270 277 284 288 297 303 313 307 293 298 330 21 25 28 352
219 216 213 215 219 219 218 219 221 221 224 226 228 231 236 236 240 239 242 243 243 247 245 248 251 251 257 263 272 273 279 286 295 299 311 267 285 192 320 8 4 348 346
221 219 217 217 220 223 222 222 223 225 226 228 231 231 233 235 234 235 233 241 241 242 243 245 247 253 253 260 264 272 275 283 283 283 280 276 231 293 215 280 350 350 352
230 224 222 221 222 223 226 228 227 228 230 229 232 234 235 236 236 241 246 246 235 250 242 250 246 251 253 256 260 262 272 273 270 268 274 265 266 252 233 300 333 345 345
233 230 229 227 228 228 229 230 230 230 231 232 233 235 238 239 243 241 240 240 244 246 254 249 248 248 256 259 255 265 274 262 261 263 269 263 252 249 249 274 308 347 344
239 235 234 232 231 231 232 233 233 233 232 233 234 233 237 240 241 244 241 236 239 246 246 253 249 248 254 256 260 270 263 255 253 258 262 244 239 237 247 265 299 331 336
235 239 238 234 231 231 233 234 233 234 233 234 234 236 237 240 244 246 241 238 239 237 245 249 250 254 255 253 259 260 247 245 249 249 237 235 242 265 284 296 309 328 340
239 240 241 241 238 236 235 236 236 236 234 235 236 238 239 241 243 244 242 238 242 241 243 240 243 253 253 253 258 243 237 245 235 230 231 240 260 282 297 313 332 340 340
245 245 244 244 245 244 242 240 240 238 236 236 237 240 241 241 244 243 241 239 238 239 235 238 242 248 247 251 247 240 243 228 221 223 228 244 263 276 288 312 336 352 347
258 258 250 251 251 251 250 247 245 241 237 234 235 238 240 241 242 241 241 240 238 235 232 236 236 241 245 242 240 236 222 219 219 222 232 248 264 272 288 314 329 352 346
264 259 252 248 249 250 247 246 240 235 232 232 234 235 237 239 241 242 243 243 239 233 228 231 228 232 239 238 232 218 216 217 219 227 237 247 254 264 279 309 325 344 345
294 282 268 253 247 243 242 245 240 233 229 231 233 235 236 239 241 242 242 237 233 231 234 222 221 234 231 229 218 216 216 217 221 229 238 243 242 246 264 294 323 334 339
342 325 288 271 260 253 245 234 230 228 229 232 235 237 239 241 244 244 242 237 226 227 228 216 219 237 228 216 212 214 215 218 223 231 235 234 230 232 249 289 316 330 333
315 328 330 313 283 261 251 239 233 232 233 236 240 244 247 248 246 242 237 228 225 220 220 211 225 233 220 213 212 213 215 219 224 229 227 222 219 221 250 284 312 323 330
288 286 296 294 275 260 245 237 233 236 240 243 246 247 245 242 237 232 231 220 217 223 212 216 231 221 212 212 212 213 217 221 224 225 221 216 214 225 254 285 302 317 323
287 287 282 276 266 264 253 247 244 243 245 248 248 247 245 241 231 230 220 221 212 227 208 217 227 213 210 211 212 215 220 222 222 220 216 212 216 228 256 275 298 308 315
288 284 281 276 280 280 273 261 255 252 250 248 245 243 240 233 224 221 216 223 214 218 212 225 218 212 211 213 213 215 219 221 222 217 214 212 219 241 262 271 287 301 310
282 289 288 286 279 279 271 266 254 249 249 249 248 242 236 229 221 224 222 221 212 212 220 220 211 212 212 212 214 216 218 219 217 216 216 219 231 263 259 265 278 289 298
277 283 283 280 274 272 274 271 263 252 247 246 245 242 238 230 221 221 221 218 218 220 218 215 212 212 212 212 214 216 218 218 216 214 218 233 252 259 260 264 271 280 290
275 280 286 286 279 272 266 262 260 258 252 250 249 246 242 236 226 224 223 221 221 222 218 213 213 215 215 216 217 217 217 217 214 211 226 243 252 259 261 265 268 275 282
282 290 293 294 286 277 274 272 267 267 266 255 250 245 242 239 233 228 227 225 222 219 214 213 215 215 216 217 216 217 219 216 208 226 240 247 254 259 262 265 270 275 278
249 291 301 302 297 286 274 271 271 274 263 258 255 249 244 240 235 230 230 228 224 218 216 216 216 216 216 216 215 214 216 207 222 233 245 253 255 258 262 266 271 274 275
28 346 324 315 311 306 293 280 267 257 259 258 257 252 246 243 239 234 230 225 221 219 218 218 217 217 217 215 214 213 204 217 227 239 251 253 256 259 261 262 264 267 273
39 34 0 338 334 331 325 309 279 260 259 262 262 258 249 244 241 237 234 230 226 223 222 222 221 221 219 217 212 204 212 222 240 256 254 252 254 256 257 257 259 263 266
34 27 13 7 357 345 334 321 304 289 276 267 265 261 256 250 245 241 238 234 233 234 233 230 229 226 223 222 214 213 230 246 261 260 248 247 248 249 250 252 254 260 265
41 27 18 10 358 347 338 330 321 306 293 284 274 266 260 254 249 243 240 237 236 236 237 237 238 234 230 220 211 225 248 269 271 241 245 246 247 248 250 252 255 258 262